| time (UTC) | temp F | wind direction | speed knots | gust knots | rain 1hr in | rain 24hr in | rain mn in | humidity % | barometer mb |
| 20260503050430 | 54 | 264 | 0.0 | 0.0 | 0.00 | 0.13 | 0.00 | 93 | 1023.7 |
| 20260503045930 | 54 | 264 | 0.0 | 0.0 | 0.00 | 0.15 | 0.00 | 93 | 1023.7 |
| 20260503045430 | 54 | 264 | 0.0 | 0.0 | 0.00 | 0.18 | 0.00 | 93 | 1023.8 |
| 20260503044927 | 54 | 264 | 0.0 | 0.0 | 0.00 | 0.21 | 0.00 | 94 | 1023.8 |
| 20260503044355 | 54 | 264 | 0.0 | 0.0 | 0.00 | 0.23 | 0.00 | 94 | 1023.8 |
| 20260503043826 | 54 | 264 | 0.0 | 0.9 | 0.00 | 0.26 | 0.00 | 94 | 1023.9 |
| 20260503043324 | 55 | 264 | 0.0 | 0.9 | 0.00 | 0.28 | 0.00 | 94 | 1023.9 |
| 20260503042823 | 55 | 264 | 0.0 | 0.0 | 0.00 | 0.30 | 0.00 | 94 | 1023.8 |
| 20260503042322 | 55 | 264 | 0.0 | 0.0 | 0.00 | 0.32 | 0.00 | 94 | 1023.9 |
| 20260503041817 | 55 | 264 | 0.0 | 0.0 | 0.00 | 0.35 | 0.00 | 94 | 1023.8 |
| 20260503041316 | 55 | 264 | 0.0 | 0.0 | 0.00 | 0.36 | 0.00 | 94 | 1023.8 |
| 20260503040749 | 55 | 264 | 0.0 | 0.0 | 0.00 | 0.38 | 0.00 | 94 | 1023.8 |
| 20260503040245 | 55 | 264 | 0.0 | 0.0 | 0.00 | 0.40 | 0.00 | 94 | 1023.9 |
| 20260503035950 | 55 | 264 | 0.0 | 0.0 | 0.00 | 0.41 | 0.00 | 94 | 1023.8 |
| 20260503035157 | 55 | 264 | 0.0 | 0.0 | 0.00 | 0.43 | 0.00 | 93 | 1023.8 |
| 20260503034656 | 55 | 264 | 0.0 | 0.9 | 0.00 | 0.44 | 0.00 | 93 | 1023.8 |
| 20260503034156 | 55 | 264 | 0.0 | 0.9 | 0.00 | 0.47 | 0.00 | 93 | 1023.7 |
| 20260503033646 | 55 | 264 | 0.0 | 0.9 | 0.00 | 0.50 | 0.00 | 92 | 1023.8 |
| 20260503033142 | 55 | 264 | 0.0 | 0.9 | 0.00 | 0.51 | 0.00 | 92 | 1023.8 |
| 20260503032631 | 55 | 264 | 0.0 | 0.0 | 0.00 | 0.54 | 0.00 | 92 | 1023.7 |
| 20260503032116 | 55 | 264 | 0.0 | 0.0 | 0.00 | 0.56 | 0.00 | 92 | 1023.7 |
| 20260503031550 | 55 | 264 | 0.0 | 0.0 | 0.00 | 0.57 | 0.00 | 91 | 1023.6 |
| 20260503031023 | 55 | 264 | 0.0 | 0.0 | 0.00 | 0.58 | 0.00 | 90 | 1023.7 |
| 20260503030524 | 55 | 264 | 0.0 | 1.7 | 0.00 | 0.58 | 0.00 | 90 | 1023.6 |
| 20260503030004 | 55 | 264 | 0.9 | 1.7 | 0.00 | 0.59 | 0.00 | 89 | 1023.6 |
| 20260503025440 | 55 | 234 | 0.9 | 1.7 | 0.00 | 0.60 | 0.59 | 88 | 1023.6 |
| 20260503024937 | 56 | 234 | 0.0 | 1.7 | 0.00 | 0.61 | 0.59 | 87 | 1023.5 |
| 20260503024435 | 56 | 234 | 0.9 | 1.7 | 0.00 | 0.63 | 0.59 | 86 | 1023.5 |
| 20260503023912 | 56 | 234 | 0.9 | 1.7 | 0.00 | 0.67 | 0.59 | 87 | 1023.6 |
| 20260503023347 | 56 | 182 | 0.0 | 1.7 | 0.00 | 0.69 | 0.59 | 86 | 1023.5 |
| 20260503022845 | 56 | 103 | 0.9 | 2.6 | 0.00 | 0.70 | 0.59 | 86 | 1023.5 |
| 20260503022615 | 56 | 182 | 1.7 | 3.5 | 0.00 | 0.70 | 0.59 | 85 | 1023.4 |
| 20260503021834 | 56 | 293 | 1.7 | 3.5 | 0.00 | 0.72 | 0.59 | 85 | 1023.4 |
| 20260503021605 | 56 | 241 | 1.7 | 3.5 | 0.00 | 0.74 | 0.59 | 85 | 1023.3 |
| 20260503020812 | 56 | 258 | 1.7 | 3.5 | 0.00 | 0.76 | 0.59 | 86 | 1023.3 |
| 20260503020309 | 56 | 267 | 0.9 | 3.5 | 0.00 | 0.76 | 0.59 | 87 | 1023.4 |
| 20260503015806 | 56 | 328 | 0.9 | 3.5 | 0.00 | 0.77 | 0.59 | 88 | 1023.2 |
| 20260503015534 | 56 | 254 | 0.9 | 3.5 | 0.00 | 0.77 | 0.59 | 89 | 1023.3 |
| 20260503015019 | 56 | 265 | 0.0 | 2.6 | 0.00 | 0.79 | 0.59 | 91 | 1023.3 |
| 20260503014517 | 56 | 233 | 0.9 | 2.6 | 0.00 | 0.80 | 0.59 | 93 | 1023.1 |
| 20260503013744 | 57 | 243 | 0.9 | 4.3 | 0.00 | 0.80 | 0.59 | 94 | 1023.1 |
| 20260503013245 | 57 | 247 | 0.9 | 4.3 | 0.00 | 0.81 | 0.59 | 95 | 1023.1 |
| 20260503012745 | 57 | 207 | 0.9 | 3.5 | 0.00 | 0.81 | 0.59 | 96 | 1022.9 |
| 20260503012516 | 57 | 103 | 0.0 | 2.6 | 0.00 | 0.83 | 0.59 | 96 | 1022.9 |
| 20260503011718 | 57 | 233 | 0.9 | 2.6 | 0.00 | 0.86 | 0.59 | 96 | 1022.8 |
| 20260503011155 | 57 | 245 | 0.9 | 2.6 | 0.00 | 0.89 | 0.59 | 96 | 1022.6 |
| 20260503010652 | 57 | 252 | 0.0 | 1.7 | 0.00 | 0.94 | 0.59 | 95 | 1022.6 |
| 20260503010152 | 57 | 252 | 0.0 | 0.0 | 0.00 | 1.03 | 0.59 | 94 | 1022.6 |
| 20260503005627 | 57 | 252 | 0.0 | 0.0 | 0.00 | 1.20 | 0.59 | 94 | 1022.6 |
| 20260503005119 | 57 | 252 | 0.0 | 0.0 | 0.00 | 1.36 | 0.59 | 94 | 1022.5 |
| 20260503004615 | 57 | 252 | 0.0 | 0.0 | 0.00 | 1.52 | 0.59 | 94 | 1022.5 |
| 20260503004052 | 58 | 252 | 0.0 | 0.0 | 0.00 | 1.58 | 0.59 | 94 | 1022.3 |
| 20260503003555 | 58 | 252 | 0.0 | 0.0 | 0.00 | 1.72 | 0.59 | 93 | 1022.2 |
| 20260503003052 | 58 | 252 | 0.0 | 0.0 | 0.00 | 1.85 | 0.59 | 94 | 1022.2 |
| 20260503002551 | 58 | 252 | 0.0 | 0.0 | 0.00 | 1.97 | 0.59 | 93 | 1022.1 |
| 20260503002024 | 59 | 252 | 0.0 | 0.0 | 0.00 | 2.06 | 0.59 | 93 | 1021.8 |
| 20260503001515 | 59 | 252 | 0.0 | 0.0 | 0.00 | 2.12 | 0.59 | 93 | 1021.7 |
| 20260503000950 | 59 | 252 | 0.0 | 0.9 | 0.00 | 2.31 | 0.59 | 93 | 1021.7 |
| 20260503000424 | 60 | 252 | 0.0 | 0.9 | 0.00 | 2.31 | 0.59 | 93 | 1021.6 |
| 20260502235917 | 60 | 252 | 0.0 | 0.0 | 0.00 | 2.31 | 0.59 | 93 | 1021.5 |
| 20260502235352 | 60 | 252 | 0.0 | 0.9 | 0.00 | 2.31 | 0.59 | 94 | 1021.5 |
| 20260502234826 | 60 | 252 | 0.9 | 1.7 | 0.00 | 2.32 | 0.59 | 94 | 1021.4 |
| 20260502234300 | 60 | 252 | 0.9 | 1.7 | 0.00 | 2.32 | 0.59 | 94 | 1021.3 |
| 20260502233800 | 60 | 252 | 0.9 | 1.7 | 0.00 | 2.32 | 0.59 | 94 | 1021.1 |
| 20260502233302 | 61 | 252 | 0.0 | 1.7 | 0.00 | 2.32 | 0.59 | 94 | 1021.2 |
| 20260502232758 | 61 | 252 | 0.0 | 0.9 | 0.00 | 2.32 | 0.59 | 94 | 1021.1 |
| 20260502232258 | 61 | 252 | 0.0 | 0.0 | 0.00 | 2.32 | 0.59 | 94 | 1021.1 |
| 20260502231752 | 61 | 252 | 0.0 | 0.9 | 0.00 | 2.32 | 0.59 | 93 | 1021.1 |
| 20260502231253 | 61 | 252 | 0.0 | 0.9 | 0.00 | 2.32 | 0.59 | 92 | 1021.1 |
| 20260502230737 | 61 | 252 | 0.0 | 0.9 | 0.00 | 2.32 | 0.59 | 92 | 1021.0 |
| 20260502230444 | 62 | 252 | 0.0 | 1.7 | 0.00 | 2.32 | 0.59 | 92 | 1021.0 |
| 20260502225643 | 62 | 252 | 0.0 | 1.7 | 0.00 | 2.32 | 0.59 | 92 | 1020.9 |
| 20260502225135 | 62 | 252 | 0.0 | 0.0 | 0.00 | 2.32 | 0.59 | 91 | 1020.8 |
| 20260502224634 | 62 | 252 | 0.0 | 0.0 | 0.00 | 2.32 | 0.59 | 91 | 1020.7 |
| 20260502224106 | 63 | 252 | 0.0 | 0.0 | 0.00 | 2.32 | 0.59 | 91 | 1020.7 |
| 20260502223554 | 63 | 252 | 0.0 | 0.0 | 0.00 | 2.32 | 0.59 | 90 | 1020.6 |
| 20260502223056 | 63 | 252 | 0.0 | 0.0 | 0.00 | 2.32 | 0.59 | 89 | 1020.6 |
| 20260502222527 | 64 | 252 | 0.0 | 0.0 | 0.00 | 2.32 | 0.59 | 89 | 1020.5 |
| 20260502222012 | 64 | 252 | 0.0 | 0.0 | 0.00 | 2.32 | 0.59 | 87 | 1020.5 |
| 20260502221513 | 64 | 252 | 0.0 | 0.0 | 0.00 | 2.32 | 0.59 | 87 | 1020.4 |
| 20260502220946 | 65 | 252 | 0.0 | 0.0 | 0.00 | 2.32 | 0.59 | 87 | 1020.2 |
| 20260502220443 | 65 | 252 | 0.0 | 1.7 | 0.00 | 2.32 | 0.59 | 87 | 1020.3 |
| 20260502215934 | 65 | 252 | 0.0 | 1.7 | 0.00 | 2.32 | 0.59 | 88 | 1020.3 |
| 20260502215432 | 65 | 252 | 0.0 | 1.7 | 0.00 | 2.32 | 0.59 | 87 | 1020.0 |
| 20260502215135 | 65 | 252 | 0.0 | 0.9 | 0.00 | 2.32 | 0.59 | 87 | 1020.1 |
| 20260502214355 | 65 | 252 | 0.0 | 1.7 | 0.00 | 2.32 | 0.59 | 87 | 1020.0 |
| 20260502214100 | 65 | 260 | 0.9 | 3.5 | 0.00 | 2.32 | 0.59 | 87 | 1020.0 |
| 20260502213302 | 65 | 242 | 1.7 | 5.2 | 0.00 | 2.32 | 0.59 | 87 | 1019.9 |
| 20260502213005 | 65 | 232 | 0.9 | 3.5 | 0.00 | 2.32 | 0.59 | 87 | 1019.6 |
| 20260502212837 | 65 | 247 | 1.7 | 5.2 | 0.00 | 2.32 | 0.59 | 88 | 1019.8 |
| 20260502211933 | 66 | 284 | 0.9 | 1.7 | 0.00 | 2.32 | 0.59 | 87 | 1019.6 |
| 20260502211159 | 66 | 284 | 0.0 | 1.7 | 0.00 | 2.32 | 0.59 | 86 | 1019.5 |
| 20260502210657 | 67 | 284 | 0.0 | 1.7 | 0.00 | 2.32 | 0.59 | 85 | 1019.4 |
| 20260502210130 | 67 | 284 | 0.9 | 2.6 | 0.00 | 2.32 | 0.59 | 86 | 1019.3 |
| 20260502205628 | 67 | 248 | 0.9 | 2.6 | 0.00 | 2.32 | 0.59 | 85 | 1019.3 |
| 20260502205100 | 68 | 249 | 0.0 | 0.9 | 0.00 | 2.32 | 0.59 | 85 | 1019.3 |
| 20260502204532 | 68 | 249 | 0.0 | 2.6 | 0.00 | 2.32 | 0.59 | 84 | 1019.2 |
| 20260502204014 | 69 | 249 | 0.9 | 2.6 | 0.00 | 2.32 | 0.59 | 84 | 1019.2 |
| 20260502203513 | 69 | 278 | 0.9 | 2.6 | 0.00 | 2.32 | 0.59 | 84 | 1019.2 |
| 20260502203014 | 70 | 273 | 0.9 | 2.6 | 0.00 | 2.33 | 0.59 | 84 | 1019.1 |
| 20260502202514 | 70 | 253 | 0.9 | 2.6 | 0.00 | 2.33 | 0.59 | 83 | 1019.1 |
| 20260502201954 | 71 | 300 | 0.9 | 1.7 | 0.00 | 2.33 | 0.59 | 82 | 1019.0 |
| 20260502201725 | 71 | 286 | 0.9 | 1.7 | 0.00 | 2.34 | 0.59 | 81 | 1019.0 |
| 20260502200955 | 71 | 286 | 0.9 | 1.7 | 0.00 | 2.36 | 0.59 | 81 | 1019.0 |
| 20260502200452 | 71 | 263 | 0.9 | 1.7 | 0.00 | 2.38 | 0.59 | 80 | 1018.9 |
| 20260502200219 | 71 | 264 | 0.9 | 3.5 | 0.00 | 2.42 | 0.59 | 80 | 1018.9 |
| 20260502195420 | 71 | 259 | 1.7 | 4.3 | 0.00 | 2.42 | 0.59 | 79 | 1018.9 |
| 20260502195146 | 71 | 245 | 1.7 | 3.5 | 0.00 | 2.42 | 0.59 | 79 | 1018.9 |
| 20260502194415 | 71 | 270 | 2.6 | 7.0 | 0.00 | 2.42 | 0.59 | 80 | 1018.8 |
| 20260502193845 | 71 | 250 | 1.7 | 7.0 | 0.00 | 2.42 | 0.59 | 79 | 1018.8 |
| 20260502193341 | 71 | 245 | 1.7 | 4.3 | 0.00 | 2.42 | 0.59 | 80 | 1018.7 |
| 20260502192827 | 71 | 259 | 2.6 | 4.3 | 0.00 | 2.42 | 0.59 | 79 | 1018.7 |
| 20260502192604 | 71 | 275 | 1.7 | 4.3 | 0.00 | 2.42 | 0.59 | 80 | 1018.4 |
| 20260502192326 | 71 | 253 | 1.7 | 4.3 | 0.00 | 2.42 | 0.59 | 79 | 1018.5 |
| 20260502191257 | 71 | 255 | 1.7 | 4.3 | 0.00 | 2.42 | 0.59 | 80 | 1018.3 |
| 20260502190745 | 71 | 255 | 3.5 | 7.0 | 0.00 | 2.42 | 0.59 | 79 | 1018.2 |
| 20260502190218 | 71 | 249 | 2.6 | 7.8 | 0.00 | 2.42 | 0.59 | 80 | 1018.2 |
| 20260502185947 | 71 | 254 | 1.7 | 4.3 | 0.00 | 2.42 | 0.59 | 80 | 1018.2 |
| 20260502185148 | 71 | 262 | 2.6 | 6.1 | 0.00 | 2.42 | 0.59 | 79 | 1018.1 |
| 20260502184621 | 71 | 249 | 2.6 | 7.8 | 0.00 | 2.42 | 0.59 | 78 | 1018.1 |
| 20260502184354 | 72 | 268 | 2.6 | 7.8 | 0.00 | 2.42 | 0.59 | 78 | 1018.1 |
| 20260502183612 | 72 | 187 | 2.6 | 6.1 | 0.00 | 2.42 | 0.59 | 78 | 1017.9 |
| 20260502183110 | 72 | 251 | 3.5 | 8.7 | 0.00 | 2.42 | 0.59 | 78 | 1018.0 |
| 20260502182545 | 72 | 258 | 3.5 | 8.7 | 0.00 | 2.42 | 0.59 | 78 | 1017.9 |
| 20260502182018 | 72 | 267 | 2.6 | 7.8 | 0.00 | 2.42 | 0.59 | 78 | 1017.9 |
| 20260502181742 | 72 | 205 | 2.6 | 7.0 | 0.00 | 2.42 | 0.59 | 78 | 1017.9 |
| 20260502181009 | 73 | 270 | 2.6 | 7.0 | 0.00 | 2.42 | 0.59 | 78 | 1017.9 |
| 20260502180444 | 72 | 289 | 1.7 | 6.1 | 0.00 | 2.42 | 0.59 | 80 | 1017.9 |
| 20260502170311 | 72 | 263 | 1.7 | 9.6 | 0.00 | 2.42 | 0.59 | 81 | 1017.9 |
| 20260502164218 | 72 | 276 | 4.3 | 8.7 | 0.00 | 2.42 | 0.59 | 81 | 1017.9 |
| 20260502163716 | 72 | 207 | 4.3 | 8.7 | 0.00 | 2.42 | 0.59 | 81 | 1018.0 |
| 20260502163214 | 72 | 266 | 4.3 | 10.4 | 0.00 | 2.42 | 0.59 | 81 | 1018.0 |
| 20260502162648 | 72 | 268 | 3.5 | 10.4 | 0.00 | 2.42 | 0.59 | 81 | 1018.0 |
| 20260502162118 | 72 | 249 | 3.5 | 11.3 | 0.00 | 2.42 | 0.59 | 82 | 1017.8 |
| 20260502161550 | 72 | 253 | 4.3 | 11.3 | 0.00 | 2.42 | 0.59 | 82 | 1017.6 |
| 20260502161048 | 72 | 257 | 3.5 | 7.8 | 0.00 | 2.42 | 0.59 | 82 | 1017.7 |
| 20260502160813 | 72 | 251 | 3.5 | 9.6 | 0.00 | 2.42 | 0.59 | 83 | 1017.6 |
| 20260502151945 | 74 | 272 | 3.5 | 8.7 | 0.00 | 2.42 | 0.59 | 83 | 1017.0 |
| 20260502151446 | 74 | 247 | 2.6 | 7.0 | 0.00 | 2.42 | 0.59 | 84 | 1016.8 |
| 20260502150920 | 74 | 257 | 2.6 | 7.0 | 0.00 | 2.42 | 0.59 | 83 | 1016.9 |
| 20260502150354 | 74 | 266 | 2.6 | 6.1 | 0.00 | 2.42 | 0.59 | 83 | 1016.9 |
| 20260502130733 | 69 | 310 | 0.9 | 2.6 | 0.00 | 2.42 | 0.59 | 96 | 1016.9 |
| 20260502130231 | 69 | 293 | 1.7 | 3.5 | 0.00 | 2.42 | 0.59 | 96 | 1016.5 |
| 20260502123330 | 69 | 212 | 0.9 | 2.6 | 0.00 | 2.42 | 0.59 | 96 | 1016.5 |
| 20260502122806 | 69 | 322 | 0.9 | 2.6 | 0.00 | 2.42 | 0.59 | 96 | 1016.4 |
| 20260502122529 | 69 | 305 | 0.9 | 5.2 | 0.00 | 2.42 | 0.59 | 96 | 1016.4 |
| 20260502121752 | 69 | 223 | 1.7 | 6.1 | 0.00 | 2.42 | 0.59 | 97 | 1016.1 |
| 20260502121249 | 69 | 258 | 1.7 | 5.2 | 0.00 | 2.42 | 0.59 | 97 | 1015.8 |
| 20260502120953 | 69 | 272 | 1.7 | 6.1 | 0.00 | 2.42 | 0.59 | 97 | 1015.7 |
| 20260502120213 | 69 | 312 | 1.7 | 6.1 | 0.00 | 2.42 | 0.59 | 97 | 1015.6 |
| 20260502115713 | 68 | 280 | 1.7 | 5.2 | 0.00 | 2.42 | 0.59 | 97 | 1015.6 |
| 20260502115145 | 68 | 280 | 2.6 | 6.1 | 0.00 | 2.42 | 0.59 | 97 | 1015.4 |
| 20260502114629 | 68 | 287 | 2.6 | 6.1 | 0.00 | 2.42 | 0.59 | 96 | 1015.1 |
| 20260502114116 | 68 | 294 | 2.6 | 6.1 | 0.00 | 2.42 | 0.59 | 96 | 1015.2 |
| 20260502113550 | 68 | 293 | 2.6 | 6.1 | 0.00 | 2.42 | 0.59 | 96 | 1015.4 |
| 20260502113037 | 68 | 272 | 1.7 | 7.0 | 0.00 | 2.42 | 0.59 | 96 | 1015.1 |
| 20260502112525 | 68 | 280 | 1.7 | 7.0 | 0.00 | 2.42 | 0.59 | 96 | 1014.9 |
| 20260502111958 | 68 | 289 | 2.6 | 7.0 | 0.00 | 2.42 | 0.59 | 96 | 1014.6 |
| 20260502111714 | 68 | 266 | 2.6 | 7.0 | 0.00 | 2.42 | 0.59 | 96 | 1014.6 |
| 20260502110932 | 68 | 271 | 2.6 | 5.2 | 0.00 | 2.42 | 0.59 | 96 | 1014.3 |
| 20260502110430 | 68 | 276 | 2.6 | 6.1 | 0.00 | 2.42 | 0.59 | 96 | 1014.1 |
| 20260502110157 | 68 | 274 | 1.7 | 6.1 | 0.00 | 2.42 | 0.59 | 96 | 1014.0 |
| 20260502105423 | 68 | 308 | 1.7 | 5.2 | 0.00 | 2.42 | 0.59 | 96 | 1013.7 |
| 20260502104923 | 68 | 287 | 0.9 | 4.3 | 0.00 | 2.42 | 0.59 | 96 | 1013.5 |
| 20260502104420 | 68 | 303 | 0.9 | 2.6 | 0.00 | 2.42 | 0.59 | 95 | 1013.3 |
| 20260502103907 | 68 | 303 | 0.9 | 2.6 | 0.00 | 2.42 | 0.59 | 95 | 1013.2 |
| 20260502103357 | 68 | 318 | 1.7 | 3.5 | 0.00 | 2.42 | 0.59 | 95 | 1013.1 |
| 20260502102855 | 68 | 318 | 2.6 | 5.2 | 0.00 | 2.42 | 0.59 | 95 | 1013.1 |
| 20260502102350 | 68 | 289 | 2.6 | 5.2 | 0.00 | 2.42 | 0.59 | 95 | 1013.0 |
| 20260502102120 | 68 | 326 | 1.7 | 3.5 | 0.00 | 2.42 | 0.59 | 95 | 1012.9 |
| 20260502101347 | 68 | 322 | 1.7 | 3.5 | 0.00 | 2.42 | 0.59 | 94 | 1012.5 |
| 20260502100820 | 68 | 290 | 2.6 | 5.2 | 0.00 | 2.42 | 0.59 | 94 | 1012.5 |
| 20260502100320 | 68 | 288 | 2.6 | 5.2 | 0.00 | 2.42 | 0.59 | 94 | 1012.3 |
| 20260502091416 | 69 | 290 | 4.3 | 10.4 | 0.00 | 2.42 | 0.59 | 93 | 1011.3 |
| 20260502090611 | 69 | 282 | 4.3 | 10.4 | 0.00 | 2.42 | 0.59 | 93 | 1011.4 |
| 20260502071208 | 67 | 24 | 0.9 | 5.2 | 0.01 | 2.42 | 0.59 | 98 | 1009.8 |
| 20260502070705 | 67 | 285 | 1.7 | 5.2 | 0.01 | 2.42 | 0.59 | 98 | 1009.9 |
| 20260502070143 | 67 | 289 | 2.6 | 6.1 | 0.01 | 2.42 | 0.59 | 98 | 1010.1 |
| 20260502065644 | 67 | 275 | 1.7 | 6.1 | 0.01 | 2.42 | 0.59 | 98 | 1010.2 |
| 20260502065146 | 67 | 304 | 2.6 | 4.3 | 0.01 | 2.42 | 0.59 | 98 | 1010.1 |
| 20260502065139 | 67 | 263 | 1.7 | 5.2 | 0.01 | 2.42 | 0.59 | 98 | 1010.2 |
| 20260502064356 | 67 | 307 | 4.3 | 7.8 | 0.02 | 2.42 | 0.59 | 98 | 1010.1 |
| 20260502063559 | 67 | 291 | 4.3 | 7.8 | 0.04 | 2.42 | 0.59 | 98 | 1010.2 |
| 20260502063100 | 67 | 284 | 3.5 | 7.8 | 0.04 | 2.42 | 0.59 | 98 | 1010.0 |
| 20260502062558 | 67 | 270 | 4.3 | 7.8 | 0.05 | 2.42 | 0.59 | 98 | 1010.2 |
| 20260502062059 | 67 | 262 | 3.5 | 7.8 | 0.07 | 2.42 | 0.59 | 98 | 1010.1 |
| 20260502061814 | 68 | 275 | 2.6 | 7.0 | 0.09 | 2.42 | 0.59 | 98 | 1010.1 |
| 20260502061044 | 68 | 187 | 4.3 | 9.6 | 0.09 | 2.41 | 0.58 | 98 | 1009.9 |
| 20260502060543 | 68 | 266 | 3.5 | 9.6 | 0.11 | 2.41 | 0.58 | 98 | 1010.2 |
| 20260502060041 | 68 | 247 | 2.6 | 6.1 | 0.14 | 2.41 | 0.58 | 98 | 1009.3 |
| 20260502055513 | 68 | 106 | 4.3 | 11.3 | 0.17 | 2.41 | 0.58 | 98 | 1008.0 |
| 20260502055011 | 68 | 187 | 4.3 | 11.3 | 0.19 | 2.41 | 0.58 | 98 | 1009.0 |
| 20260502054509 | 67 | 335 | 3.5 | 9.6 | 0.21 | 2.40 | 0.57 | 99 | 1008.3 |
| 20260502054005 | 67 | 101 | 2.6 | 8.7 | 0.22 | 2.39 | 0.56 | 98 | 1009.7 |
| 20260502053501 | 67 | 334 | 1.7 | 5.2 | 0.23 | 2.38 | 0.55 | 98 | 1010.1 |
| 20260502052959 | 67 | 287 | 1.7 | 3.5 | 0.26 | 2.38 | 0.55 | 98 | 1010.4 |
| 20260502052459 | 67 | 33 | 2.6 | 4.3 | 0.26 | 2.37 | 0.54 | 98 | 1010.0 |
| 20260502051957 | 67 | 38 | 2.6 | 7.0 | 0.26 | 2.35 | 0.52 | 98 | 1010.9 |
| 20260502051455 | 67 | 256 | 1.7 | 6.1 | 0.26 | 2.33 | 0.50 | 98 | 1011.6 |
| 20260502050950 | 67 | 210 | 1.7 | 5.2 | 0.27 | 2.31 | 0.48 | 98 | 1011.0 |